METEOR 2-11 DEB, 40705

Orbit data source: Space-Track

METEOR 2-11 DEB, 40705 is space debris in LEO originally from a launch on Thu, 05 Jul 1984 UTC launched from the Plesetsk Missile And Space Complex (PKMTR). Debris objects in space refer to the collection of defunct objects orbiting the Earth. Examples of debris include non-operational satellites, rocket bodies, and fragments generated from explosions, collisions, or faulty payload assembly.

Loading next visibility...
Identifier
40705, 1984-072G
Orbit
LEO
Last TLE update
20 hours ago
Origin
Manufacturer
Unknown
Mission
Spacecraft
Bus & Motor
Unknown
Mass
Unknown
Launch date (UTC)
1984-07-05 (41 years ago)
Launch vehicle
Unknown
Launch site
Plesetsk Missile And Space Complex (PKMTR)
Object type
Payload
Rocket body
Debris
Shape & HBR
Unknown
Radar Cross Section
Small (<0.1 m²)

Expand to show TLE details & history

TLE from 20 hours ago
0 METEOR 2-11 DEB
1 40705U 84072G   25183.26388869  .00001038  00000-0  73879-3 0  9995
2 40705  82.5199 292.3126 0020134 328.6714  31.3252 13.96533485538478
Epoch: 2025-07-02T06:19Z
TLE epoch observation values (Epoch: 2025-07-02T06:19:59.982Z)
Latitude
-0.00003°
Longitude
-83.23482°
Altitude
896.22 km
Speed
7.41 km/s
True Right ascension
19h 29m 15s
True Declination
0° 00' 00"
Sunlit
Object was in full shadow at epoch
Visualization orbit readout
Latitude
-71.45043°
Longitude
-106.82981°
Altitude
920.926 km
Speed
7.396 km/s
Apparent Right ascension
00h 30m 14s
Apparent Declination
-70° 06' 57"
Sunlit
Object is in full shadow
Visualization observer readout
Local Sidereal Time
14:22:16
Azimuth
163.186° S
Elevation
-56.483°
Doppler factor
1
Orbital elements
Apogee altitude
917.619 km
Perigee altitude
888.3 km
Semi-major axis
7,281.097 km
Eccentricity
0.00201
Inclination
82.5199°
RAAN
292.3126°
Arg. of periapsis
328.6714°
True anomaly
Unknown
Mean anomaly
31.3252°
Eccentric anomaly
Unknown
Mean motion
3.4934 °/min
Orbital period
103.05 mins
BSTAR
0.00073879
Loading maneuver chart data...
Loading SW <> Apogee altitude chart data...
Loading historical data...
Loading historical data...
Loading historical data...
Loading historical data...
Loading historical data...
Loading historical data...
Loading historical data...

METEOR 2-11 DEB Visibility forecast

Observer location: undefined°, undefined°

Span
Click to sort rows by Start time (UTC) header in descending order
Start Az.
Max El. time (UTC)
Max El. Az.
Max El.
End time (UTC)
End Az.
5 mins2025-07-03 06:33:13.460Z111.478° ESE2025-07-03 06:36:13.460Z78.841° E14.599°2025-07-03 06:38:13.460Z56.97° ENE
9 mins2025-07-03 08:15:13.460Z199.291° SSW2025-07-03 08:19:13.460Z283.094° WNW43.043°2025-07-03 08:24:13.460Z1.379° NNE
10 mins2025-07-03 19:02:13.460Z355.187° N2025-07-03 19:06:13.460Z28.438° NE44.367°2025-07-03 19:12:13.460Z170.868° S
|